{"data":{"norad_id":63431,"epoch":"2026-09-22T18:33:23.206464Z","epoch_age_seconds":109833,"freshness":"FRESH","line1":"1 63431U 25067D   26265.77318526  .00007891  00000+0  38434-3 0  9996","line2":"2 63431  55.0008 321.2128 0002797 174.1739 185.9313 15.19266701 82764","mean_motion":15.19266701,"eccentricity":0.0002797,"inclination_deg":55.0008,"raan_deg":321.2128,"arg_perigee_deg":174.1739,"mean_anomaly_deg":185.9313,"bstar":0.00038434,"rev_number":8276,"period_min":94.782568396462,"perigee_km":506.12947735968,"apogee_km":509.98161346958,"semimajor_km":6886.1925454146,"source":"CELESTRAK","updated_at":"2026-09-23T09:00:22.082825Z"}}